Stations météo

Publicité
Isola Stromboli, Italie (16416): Température de l'air & dewpoint: 13.09.2019 17:00:00 - 19.09.2019 17:00:00 (CEST)Isola Stromboli, Italie (16416): Vitesse du vent: 13.09.2019 17:00:00 - 19.09.2019 17:00:00 (CEST)Isola Stromboli, Italie (16416): Direction du vent: 13.09.2019 17:00:00 - 19.09.2019 17:00:00 (CEST)Isola Stromboli, Italie (16416): reduced air pressure: 13.09.2019 17:00:00 - 19.09.2019 17:00:00 (CEST)
Date & Time tt [°C] td [°C] ff [km/h] ff [knt] dd ppp [hPa]
19.09.2019 17:00:00 - - - - - -
19.09.2019 16:00:00 - - - - - -
19.09.2019 15:00:00 - - - - - -
19.09.2019 14:00:00 - - - - - -
19.09.2019 13:00:00 - - - - - -
19.09.2019 12:00:00 - - - - - -
19.09.2019 11:00:00 - - - - - -
19.09.2019 10:00:00 - - - - - -
19.09.2019 09:00:00 - - - - - -
19.09.2019 08:00:00 - - - - - -
19.09.2019 07:00:00 - - - - - -
19.09.2019 06:00:00 - - - - - -
19.09.2019 05:00:00 - - - - - -
19.09.2019 04:00:00 - - - - - -
19.09.2019 03:00:00 - - - - - -
19.09.2019 02:00:00 - - - - - -
19.09.2019 01:00:00 - - - - - -
19.09.2019 00:00:00 - - - - - -
18.09.2019 23:00:00 - - - - - -
18.09.2019 22:00:00 - - - - - -
18.09.2019 21:00:00 - - - - - -
18.09.2019 20:00:00 - - - - - -
18.09.2019 19:00:00 - - - - - -
18.09.2019 18:00:00 - - - - - -
18.09.2019 17:00:00 - - - - - -
18.09.2019 16:00:00 - - - - - -
18.09.2019 15:00:00 - - - - - -
18.09.2019 14:00:00 - - - - - -
18.09.2019 13:00:00 - - - - - -
18.09.2019 12:00:00 - - - - - -
18.09.2019 11:00:00 - - - - - -
18.09.2019 10:00:00 - - - - - -
18.09.2019 09:00:00 - - - - - -
18.09.2019 08:00:00 - - - - - -
18.09.2019 07:00:00 - - - - - -
18.09.2019 06:00:00 - - - - - -
18.09.2019 05:00:00 - - - - - -
18.09.2019 04:00:00 - - - - - -
18.09.2019 03:00:00 - - - - - -
18.09.2019 02:00:00 - - - - - -
18.09.2019 01:00:00 - - - - - -
18.09.2019 00:00:00 - - - - - -
17.09.2019 23:00:00 - - - - - -
17.09.2019 22:00:00 - - - - - -
17.09.2019 21:00:00 - - - - - -
17.09.2019 20:00:00 - - - - - -
17.09.2019 19:00:00 - - - - - -
17.09.2019 18:00:00 24,8 20,2 5 3 S 1017,2
17.09.2019 17:00:00 25,3 22,1 4 2 S 1017,5
17.09.2019 16:00:00 24,9 22,3 4 2 S 1017,8
17.09.2019 15:00:00 25,0 22,4 4 2 S 1018,2
17.09.2019 14:00:00 24,8 21,9 8 4 S 1018,5
17.09.2019 13:00:00 25,1 22,3 9 5 S 1018,7
17.09.2019 12:00:00 - - - - - -
17.09.2019 11:00:00 - - - - - -
17.09.2019 10:00:00 - - - - - -
17.09.2019 09:00:00 - - - - - -
17.09.2019 08:00:00 23,6 21,2 2 1 S 1018,5
17.09.2019 07:00:00 22,2 20,1 4 2 S 1018,5
17.09.2019 06:00:00 22,3 19,8 4 2 S 1018,4
17.09.2019 05:00:00 22,2 19,3 4 2 S 1018,6
17.09.2019 04:00:00 22,1 19,8 4 2 S 1018,9
17.09.2019 03:00:00 22,5 20,4 5 3 S 1019,2
17.09.2019 02:00:00 22,0 19,7 4 2 S 1019,4
17.09.2019 01:00:00 22,1 19,4 4 2 S 1019,4
17.09.2019 00:00:00 22,1 19,8 4 2 S 1019,7
16.09.2019 23:00:00 22,4 19,3 4 2 S 1019,6
16.09.2019 22:00:00 22,4 19,5 4 2 S 1019,6
16.09.2019 21:00:00 23,2 19,5 4 2 S 1019,3
16.09.2019 20:00:00 23,3 19,4 5 3 S 1019,0
16.09.2019 19:00:00 24,0 19,4 4 2 S 1019,1
16.09.2019 18:00:00 24,9 19,7 9 5 S 1019,3
16.09.2019 17:00:00 25,6 20,3 11 6 S 1019,4
16.09.2019 16:00:00 25,8 19,6 11 6 S 1019,7
16.09.2019 15:00:00 26,5 20,8 8 4 S 1020,1
16.09.2019 14:00:00 26,1 21,0 8 4 S 1020,5
16.09.2019 13:00:00 27,1 23,5 4 2 S 1020,9
16.09.2019 12:00:00 26,3 22,3 4 2 S 1021,4
16.09.2019 11:00:00 25,4 21,8 4 2 S 1021,4
16.09.2019 10:00:00 26,1 23,1 4 2 S 1021,2
16.09.2019 09:00:00 24,9 23,1 2 1 S 1020,9
16.09.2019 08:00:00 23,3 21,5 0 0 N 1020,7
16.09.2019 07:00:00 22,3 19,0 2 1 S 1020,7
16.09.2019 06:00:00 22,7 18,6 2 1 S 1020,5
16.09.2019 05:00:00 22,7 19,6 2 1 S 1020,7
16.09.2019 04:00:00 22,7 19,2 0 0 N 1021,0
16.09.2019 03:00:00 23,0 15,5 2 1 S 1021,5
16.09.2019 02:00:00 23,2 15,7 2 1 S 1021,9
16.09.2019 01:00:00 23,0 18,5 0 0 N 1022,3
16.09.2019 00:00:00 22,9 18,6 4 2 S 1022,4
15.09.2019 23:00:00 23,3 19,0 2 1 S 1022,5
15.09.2019 22:00:00 23,3 18,8 0 0 N 1022,6
15.09.2019 21:00:00 23,3 18,5 0 0 N 1022,4
15.09.2019 20:00:00 23,2 18,5 4 2 S 1022,2
15.09.2019 19:00:00 24,1 18,2 4 2 S 1022,0
15.09.2019 18:00:00 25,9 18,8 5 3 S 1022,4
15.09.2019 17:00:00 26,0 18,3 5 3 S 1022,6
15.09.2019 16:00:00 26,8 19,6 5 3 S 1022,6
15.09.2019 15:00:00 26,4 19,0 13 7 S 1023,3
15.09.2019 14:00:00 27,4 19,9 9 5 S 1023,7
15.09.2019 13:00:00 27,7 20,2 4 2 S 1024,2
15.09.2019 12:00:00 27,1 20,1 5 3 S 1024,6
15.09.2019 11:00:00 27,3 20,6 4 2 S 1024,8
15.09.2019 10:00:00 26,8 20,6 5 3 S 1024,8
15.09.2019 09:00:00 25,6 19,4 8 4 S 1024,7
15.09.2019 08:00:00 24,5 18,8 0 0 N 1024,0
15.09.2019 07:00:00 22,7 15,7 4 2 S 1023,7
15.09.2019 06:00:00 22,9 17,3 4 2 S 1023,3
15.09.2019 05:00:00 23,1 15,6 5 3 S 1023,4
15.09.2019 04:00:00 23,7 15,7 0 0 N 1023,5
15.09.2019 03:00:00 22,5 16,2 4 2 S 1023,7
15.09.2019 02:00:00 22,7 18,6 4 2 S 1024,0
15.09.2019 01:00:00 23,6 19,3 5 3 S 1024,3
15.09.2019 00:00:00 23,8 17,9 5 3 S 1024,5
14.09.2019 23:00:00 23,4 17,3 4 2 S 1024,6
14.09.2019 22:00:00 24,2 18,8 4 2 S 1024,8
14.09.2019 21:00:00 24,3 18,6 4 2 S 1024,4
14.09.2019 20:00:00 24,1 17,8 8 4 S 1024,0
14.09.2019 19:00:00 24,8 17,0 8 4 S 1023,6
14.09.2019 18:00:00 25,7 16,7 8 4 S 1023,6
14.09.2019 17:00:00 26,3 18,9 13 7 S 1024,0
14.09.2019 16:00:00 26,9 18,9 9 5 S 1024,4
14.09.2019 15:00:00 26,7 18,8 9 5 S 1024,8
14.09.2019 14:00:00 26,7 18,8 13 7 S 1025,0
14.09.2019 13:00:00 27,1 19,1 8 4 S 1025,4
14.09.2019 12:00:00 27,5 19,5 4 2 S 1025,6
14.09.2019 11:00:00 27,0 18,8 4 2 S 1025,6
14.09.2019 10:00:00 27,1 20,9 5 3 S 1025,5
14.09.2019 09:00:00 26,2 22,4 2 1 S 1025,4
14.09.2019 08:00:00 24,6 21,5 2 1 S 1025,0
14.09.2019 07:00:00 22,3 17,4 2 1 S 1024,5
14.09.2019 06:00:00 23,3 12,6 4 2 S 1024,2
14.09.2019 05:00:00 24,1 16,5 2 1 S 1024,4
14.09.2019 04:00:00 24,2 16,9 8 4 S 1024,6
14.09.2019 03:00:00 24,0 21,8 0 0 N 1025,0
14.09.2019 02:00:00 24,2 21,5 4 2 S 1025,4
14.09.2019 01:00:00 24,5 21,8 8 4 S 1025,6
14.09.2019 00:00:00 25,0 20,8 13 7 S 1025,7
13.09.2019 23:00:00 25,2 19,3 15 8 S 1025,8
13.09.2019 22:00:00 25,0 18,6 16 9 S 1025,6
13.09.2019 21:00:00 25,0 20,6 18 10 S 1025,3
13.09.2019 20:00:00 25,2 20,0 21 11 S 1024,8
13.09.2019 19:00:00 25,3 20,9 22 12 S 1024,6
13.09.2019 18:00:00 26,2 20,2 16 9 S 1024,8
13.09.2019 17:00:00 27,4 17,2 15 8 S 1024,6

tt = Température de l'air
td = dewpoint
ff = Vitesse du vent
dd = Direction du vent
ppp = reduced air pressure

stations d'obs. à proximité